�������l�o���
Date,Time,MP-1(��Sv/h),MP-2(��Sv/h),MP-3(��Sv/h),MP-4(��Sv/h),MP-5(��Sv/h),MP-6(��Sv/h),MP-7(��Sv/h),MP-8(��Sv/h),����,����(m/s),���J
2020/04/28,00:00,0.684,0.987,0.652,1.192,0.856,0.396,0.689,0.652,���k��,4.2,��
2020/04/28,00:10,0.684,0.988,0.652,1.194,0.856,0.394,0.690,0.652,�k�k��,2.6,��
2020/04/28,00:20,0.685,0.989,0.654,1.194,0.855,0.395,0.690,0.653,�k,3.5,��
2020/04/28,00:30,0.685,0.987,0.651,1.194,0.856,0.395,0.688,0.655,�k,5.6,��
2020/04/28,00:40,0.685,0.986,0.651,1.194,0.857,0.394,0.690,0.654,�k�k��,4.7,��
2020/04/28,00:50,0.684,0.988,0.652,1.193,0.854,0.394,0.690,0.654,�k�k��,5.8,��
2020/04/28,01:00,0.684,0.987,0.651,1.195,0.854,0.394,0.690,0.654,�k�k��,6.4,��
2020/04/28,01:10,0.683,0.987,0.653,1.195,0.854,0.395,0.690,0.654,�k�k��,7.3,��
2020/04/28,01:20,0.683,0.986,0.652,1.195,0.855,0.395,0.690,0.653,�k,6.7,��
2020/04/28,01:30,0.686,0.988,0.652,1.195,0.854,0.395,0.689,0.654,�k,6.4,��
2020/04/28,01:40,0.683,0.987,0.652,1.195,0.854,0.395,0.689,0.655,�k�k��,5.6,��
2020/04/28,01:50,0.683,0.988,0.652,1.196,0.854,0.394,0.690,0.654,�k�k��,5.3,��
2020/04/28,02:00,0.683,0.987,0.650,1.194,0.854,0.394,0.690,0.654,�k�k��,4.8,��
2020/04/28,02:10,0.683,0.983,0.652,1.192,0.854,0.394,0.689,0.654,�k�k��,5.2,��
2020/04/28,02:20,0.684,0.986,0.651,1.194,0.855,0.395,0.689,0.654,�k�k��,4.8,��
2020/04/28,02:30,0.683,0.987,0.653,1.195,0.854,0.393,0.689,0.655,�k�k��,4.7,��
2020/04/28,02:40,0.683,0.987,0.652,1.194,0.855,0.394,0.691,0.654,�k�k��,4.7,��
2020/04/28,02:50,0.683,0.987,0.651,1.194,0.854,0.394,0.689,0.654,�k�k��,4.8,��
2020/04/28,03:00,0.684,0.986,0.649,1.195,0.853,0.393,0.691,0.654,�k��,4.8,��
2020/04/28,03:10,0.682,0.988,0.651,1.196,0.855,0.394,0.690,0.653,�k�k��,4.3,��
2020/04/28,03:20,0.684,0.985,0.652,1.196,0.854,0.394,0.689,0.652,�k��,3.9,��
2020/04/28,03:30,0.683,0.985,0.652,1.194,0.855,0.394,0.690,0.655,�k��,4.2,��
2020/04/28,03:40,0.682,0.985,0.650,1.195,0.853,0.392,0.687,0.654,�k��,4.2,��
2020/04/28,03:50,0.681,0.984,0.649,1.194,0.853,0.394,0.690,0.654,�k��,4.1,��
2020/04/28,04:00,0.682,0.985,0.651,1.194,0.854,0.393,0.688,0.654,�k��,4.3,��
2020/04/28,04:10,0.683,0.986,0.650,1.194,0.853,0.395,0.689,0.653,�k��,4.1,��
2020/04/28,04:20,0.683,0.986,0.652,1.196,0.853,0.393,0.689,0.654,�k��,4.3,��
2020/04/28,04:30,0.683,0.985,0.651,1.194,0.855,0.394,0.688,0.653,�k��,3.9,��
2020/04/28,04:40,0.683,0.985,0.651,1.196,0.853,0.392,0.689,0.653,�k��,3.6,��
2020/04/28,04:50,0.682,0.985,0.653,1.195,0.853,0.394,0.688,0.656,�k��,3.3,��
2020/04/28,05:00,0.683,0.986,0.651,1.196,0.856,0.394,0.688,0.654,�k��,3.5,��
2020/04/28,05:10,0.683,0.984,0.650,1.197,0.853,0.395,0.689,0.653,���k��,3.3,��
2020/04/28,05:20,0.682,0.985,0.650,1.195,0.855,0.393,0.689,0.653,�k��,3.3,��
2020/04/28,05:30,0.682,0.986,0.650,1.194,0.855,0.392,0.688,0.653,�k��,3.0,��
2020/04/28,05:40,0.681,0.985,0.651,1.198,0.853,0.393,0.689,0.653,�k��,2.6,��
2020/04/28,05:50,0.683,0.988,0.652,1.196,0.855,0.395,0.688,0.653,�k��,2.3,��
2020/04/28,06:00,0.683,0.983,0.652,1.196,0.853,0.394,0.690,0.656,�k��,2.0,��
2020/04/28,06:10,0.682,0.986,0.650,1.198,0.854,0.395,0.689,0.654,�k��,1.5,��
2020/04/28,06:20,0.682,0.988,0.651,1.195,0.853,0.392,0.688,0.656,���k��,1.2,��
2020/04/28,06:30,0.684,0.988,0.652,1.196,0.853,0.393,0.690,0.654,�k��,1.5,��
2020/04/28,06:40,0.683,0.985,0.652,1.194,0.853,0.395,0.690,0.654,�k�k��,1.7,��
2020/04/28,06:50,0.683,0.987,0.651,1.197,0.854,0.396,0.688,0.654,�k�k��,1.7,��
2020/04/28,07:00,0.685,0.986,0.653,1.196,0.852,0.395,0.690,0.654,�k�k��,1.2,��
2020/04/28,07:10,0.686,0.987,0.650,1.196,0.854,0.396,0.690,0.657,�k�k��,1.1,��
2020/04/28,07:20,0.685,0.987,0.652,1.195,0.856,0.394,0.690,0.655,�k,1.7,��
2020/04/28,07:30,0.684,0.989,0.655,1.196,0.859,0.393,0.691,0.655,���k��,1.5,��
2020/04/28,07:40,0.686,0.986,0.653,1.197,0.854,0.393,0.691,0.655,�k�k��,1.7,��
2020/04/28,07:50,0.685,0.988,0.654,1.195,0.855,0.394,0.692,0.655,�k�k��,2.0,��
2020/04/28,08:00,0.686,0.987,0.651,1.195,0.854,0.393,0.690,0.655,�k�k��,2.0,��
2020/04/28,08:10,0.685,0.985,0.653,1.196,0.853,0.393,0.690,0.656,�k��,2.6,��
2020/04/28,08:20,0.686,0.987,0.652,1.194,0.856,0.393,0.691,0.654,���k��,3.2,��
2020/04/28,08:30,0.686,0.988,0.652,1.196,0.854,0.394,0.689,0.654,�k��,2.8,��
2020/04/28,08:40,0.685,0.985,0.653,1.197,0.854,0.395,0.689,0.654,���k��,3.3,��
2020/04/28,08:50,0.687,0.986,0.654,1.196,0.854,0.393,0.689,0.654,�k��,3.0,��
2020/04/28,09:00,0.686,0.988,0.652,1.195,0.858,0.393,0.688,0.655,�k��,3.3,��
2020/04/28,09:10,0.687,0.986,0.654,1.196,0.856,0.393,0.688,0.653,�k��,3.2,��
2020/04/28,09:20,0.685,0.985,0.653,1.200,0.858,0.393,0.686,0.652,���k��,3.0,��
2020/04/28,09:30,0.688,0.986,0.652,1.196,0.857,0.394,0.689,0.651,���k��,2.8,��
2020/04/28,09:40,0.688,0.988,0.653,1.196,0.856,0.394,0.689,0.650,��,2.6,��
2020/04/28,09:50,0.688,0.988,0.653,1.198,0.854,0.395,0.689,0.651,��,2.6,��
2020/04/28,10:00,0.688,0.987,0.654,1.196,0.857,0.394,0.687,0.653,���쓌,3.3,��
2020/04/28,10:10,0.688,0.988,0.655,1.193,0.855,0.394,0.689,0.652,��,3.3,��
2020/04/28,10:20,0.687,0.989,0.653,1.194,0.857,0.394,0.688,0.652,��,2.6,��
2020/04/28,10:30,0.686,0.989,0.653,1.196,0.856,0.394,0.688,0.652,��,3.3,�L
2020/04/28,10:40,0.689,0.992,0.651,1.196,0.858,0.393,0.691,0.652,��,2.6,�L
2020/04/28,10:50,0.686,0.989,0.652,1.197,0.855,0.393,0.689,0.652,���쓌,3.3,�L
2020/04/28,11:00,0.687,0.990,0.653,1.195,0.858,0.394,0.687,0.653,�쓌,3.6,��
2020/04/28,11:10,0.687,0.990,0.654,1.197,0.858,0.395,0.689,0.653,��쓌,4.2,��
2020/04/28,11:20,0.686,0.991,0.655,1.200,0.856,0.394,0.688,0.652,�쓌,3.8,�L
2020/04/28,11:30,0.685,0.990,0.652,1.198,0.857,0.394,0.688,0.654,�쓌,4.7,�L
2020/04/28,11:40,0.686,0.990,0.654,1.198,0.855,0.394,0.689,0.654,��쓌,4.5,�L
2020/04/28,11:50,0.688,0.990,0.655,1.198,0.856,0.396,0.689,0.654,�쓌,4.9,�L
2020/04/28,12:00,0.685,0.991,0.655,1.200,0.857,0.396,0.690,0.654,�쓌,5.3,�L
2020/04/28,12:10,0.688,0.992,0.657,1.198,0.858,0.397,0.691,0.653,��쓌,6.0,��
2020/04/28,12:20,0.689,0.994,0.657,1.199,0.858,0.398,0.688,0.652,��쓌,7.1,��
2020/04/28,12:30,0.685,0.993,0.657,1.201,0.860,0.397,0.690,0.655,�쓌,6.2,��
2020/04/28,12:40,0.687,0.993,0.658,1.197,0.860,0.397,0.693,0.654,�쓌,5.8,��
2020/04/28,12:50,0.687,0.992,0.656,1.200,0.855,0.397,0.690,0.652,�쓌,4.4,��
2020/04/28,13:00,0.688,0.992,0.655,1.199,0.860,0.396,0.690,0.654,��쓌,6.3,��
2020/04/28,13:10,0.687,0.994,0.655,1.199,0.858,0.394,0.690,0.655,��쓌,7.2,��
2020/04/28,13:20,0.689,0.992,0.655,1.200,0.857,0.395,0.693,0.653,��쓌,9.4,��
2020/04/28,13:30,0.686,0.993,0.655,1.199,0.858,0.395,0.690,0.653,��쓌,9.4,�L
2020/04/28,13:40,0.688,0.993,0.654,1.200,0.858,0.395,0.691,0.652,��쓌,10.6,��
2020/04/28,13:50,0.688,0.994,0.654,1.199,0.858,0.396,0.690,0.654,��쓌,10.2,��
2020/04/28,14:00,0.688,0.991,0.653,1.200,0.858,0.395,0.690,0.653,��쓌,7.9,��
2020/04/28,14:10,0.688,0.993,0.653,1.201,0.858,0.397,0.689,0.653,��쓌,8.1,��
2020/04/28,14:20,0.690,0.994,0.655,1.200,0.857,0.395,0.691,0.653,��,6.9,��
2020/04/28,14:30,0.689,0.995,0.656,1.199,0.857,0.397,0.692,0.655,��쓌,7.4,��
2020/04/28,14:40,0.690,0.993,0.656,1.199,0.857,0.399,0.692,0.654,��쓌,6.5,��
2020/04/28,14:50,0.688,0.995,0.655,1.202,0.858,0.396,0.691,0.654,��쓌,7.9,��
2020/04/28,15:00,0.689,0.996,0.657,1.200,0.860,0.397,0.691,0.654,��쓌,8.2,��
2020/04/28,15:10,0.688,0.996,0.656,1.202,0.856,0.399,0.690,0.654,��쓌,7.8,��
2020/04/28,15:20,0.691,0.997,0.657,1.198,0.858,0.396,0.691,0.653,��,7.5,�L
2020/04/28,15:30,0.689,0.996,0.655,1.201,0.859,0.397,0.692,0.653,��쓌,5.4,�L
2020/04/28,15:40,0.690,0.997,0.657,1.198,0.859,0.396,0.691,0.653,�쓌,5.6,��
2020/04/28,15:50,0.689,0.999,0.655,1.202,0.858,0.397,0.688,0.654,��쓌,6.7,�L
2020/04/28,16:00,0.690,0.996,0.656,1.199,0.857,0.398,0.689,0.653,��쓌,5.1,�L
2020/04/28,16:10,0.691,1.000,0.658,1.199,0.859,0.400,0.689,0.653,��쓌,5.5,��
2020/04/28,16:20,0.690,0.996,0.656,1.199,0.859,0.398,0.691,0.654,��쓌,5.7,��
2020/04/28,16:30,0.692,0.999,0.657,1.200,0.856,0.399,0.689,0.654,��쓌,4.3,��
2020/04/28,16:40,0.692,1.000,0.657,1.200,0.856,0.398,0.689,0.655,��쓌,5.0,��
2020/04/28,16:50,0.691,0.999,0.657,1.200,0.859,0.398,0.689,0.655,��쓌,5.1,�L
2020/04/28,17:00,0.690,0.999,0.658,1.200,0.860,0.398,0.692,0.656,��,4.0,�L
2020/04/28,17:10,0.692,1.000,0.657,1.199,0.858,0.397,0.691,0.654,��,4.2,�L
2020/04/28,17:20,0.691,1.000,0.655,1.202,0.861,0.398,0.689,0.656,��,2.9,��
2020/04/28,17:30,0.691,1.000,0.659,1.202,0.859,0.398,0.691,0.657,��쐼,3.1,��
2020/04/28,17:40,0.692,1.001,0.657,1.198,0.857,0.399,0.690,0.658,��쐼,2.0,��
2020/04/28,17:50,0.693,1.000,0.658,1.200,0.860,0.399,0.689,0.655,�쓌,1.5,��
2020/04/28,18:00,0.691,1.000,0.656,1.198,0.862,0.400,0.691,0.655,�쓌,1.2,��
2020/04/28,18:10,0.691,0.999,0.655,1.199,0.860,0.398,0.692,0.657,��쓌,1.7,��
2020/04/28,18:20,0.691,1.000,0.657,1.200,0.860,0.399,0.692,0.657,��쐼,2.5,��
2020/04/28,18:30,0.690,0.999,0.656,1.200,0.860,0.398,0.691,0.656,��,1.9,��
2020/04/28,18:40,0.690,0.998,0.657,1.200,0.862,0.398,0.691,0.657,-,CALM,��
2020/04/28,18:50,0.690,0.998,0.656,1.200,0.860,0.398,0.692,0.657,��쐼,1.9,��
2020/04/28,19:00,0.689,0.997,0.656,1.199,0.861,0.397,0.693,0.657,��,3.6,��
2020/04/28,19:10,0.689,0.998,0.656,1.200,0.861,0.397,0.692,0.654,��,4.2,��
2020/04/28,19:20,0.690,0.997,0.657,1.200,0.860,0.398,0.693,0.655,���k��,4.3,��
2020/04/28,19:30,0.691,0.999,0.656,1.200,0.860,0.397,0.692,0.655,���k��,4.4,��
2020/04/28,19:40,0.690,0.998,0.657,1.205,0.858,0.397,0.692,0.656,���k��,5.1,��
2020/04/28,19:50,0.691,0.997,0.655,1.201,0.860,0.398,0.692,0.657,�k��,5.1,��
2020/04/28,20:00,0.691,1.000,0.655,1.201,0.859,0.398,0.692,0.657,�k��,4.1,��
2020/04/28,20:10,0.688,0.996,0.658,1.199,0.860,0.397,0.691,0.656,�k��,4.2,��
2020/04/28,20:20,0.691,0.999,0.654,1.201,0.860,0.399,0.692,0.657,�k�k��,5.5,��
2020/04/28,20:30,0.688,0.998,0.656,1.200,0.860,0.397,0.692,0.655,�k�k��,5.6,��
2020/04/28,20:40,0.690,1.001,0.657,1.198,0.860,0.398,0.693,0.657,�k�k��,6.5,��
2020/04/28,20:50,0.690,0.995,0.655,1.200,0.860,0.398,0.693,0.655,�k�k��,5.3,��
2020/04/28,21:00,0.690,0.996,0.656,1.201,0.857,0.398,0.692,0.656,�k,4.1,��
2020/04/28,21:10,0.690,0.998,0.655,1.201,0.859,0.398,0.692,0.655,�k,4.9,��
2020/04/28,21:20,0.690,0.995,0.655,1.200,0.858,0.396,0.692,0.654,�k,4.7,��
2020/04/28,21:30,0.690,0.995,0.656,1.200,0.860,0.396,0.692,0.656,�k,4.2,��
2020/04/28,21:40,0.690,0.995,0.656,1.199,0.859,0.397,0.691,0.656,�k�k��,3.3,��
2020/04/28,21:50,0.688,0.995,0.656,1.199,0.859,0.396,0.691,0.658,�k�k��,3.2,��
2020/04/28,22:00,0.689,0.996,0.656,1.201,0.860,0.396,0.692,0.655,�k�k��,3.2,��
2020/04/28,22:10,0.688,0.994,0.655,1.200,0.859,0.396,0.692,0.656,�k�k��,3.4,��
2020/04/28,22:20,0.687,0.995,0.654,1.200,0.859,0.394,0.692,0.656,�k��,2.6,��
2020/04/28,22:30,0.689,0.995,0.655,1.200,0.858,0.395,0.691,0.654,�k�k��,2.5,��
2020/04/28,22:40,0.690,0.993,0.656,1.201,0.861,0.396,0.693,0.655,�k�k��,3.0,��
2020/04/28,22:50,0.690,0.996,0.655,1.200,0.859,0.395,0.691,0.655,�k�k��,2.9,��
2020/04/28,23:00,0.689,0.994,0.655,1.201,0.859,0.395,0.693,0.655,�k��,2.6,��
2020/04/28,23:10,0.689,0.997,0.656,1.203,0.859,0.397,0.693,0.656,�k��,2.6,��
2020/04/28,23:20,0.689,0.994,0.656,1.201,0.859,0.395,0.692,0.657,�k��,2.6,��
2020/04/28,23:30,0.689,0.996,0.655,1.200,0.858,0.398,0.690,0.656,�k��,1.9,��
2020/04/28,23:40,0.690,0.995,0.657,1.199,0.859,0.395,0.691,0.656,�k�k��,2.2,��
2020/04/28,23:50,0.689,0.994,0.654,1.201,0.859,0.397,0.690,0.655,�k�k��,2.8,��
